sat.trackr.live / text

‹ back to catalog

HONGHU 2

NORAD 58555 · 2023-193C

PAYLOAD ACTIVE UNKNOWN

§ Identity

Operator
Country
PRC
Launch date
2023-12-08
Launch site
JSC
Launch vehicle
Mass (kg)
RCS (m²)

External: N2YO · Heavens-Above · Gunter

§ Orbital elements

Epoch: 2026-05-25T05:16:38.053632Z

Period
94.52 min
Inclination
97.2792°
Eccentricity
0.0040770
Mean motion
15.23426014 rev/d
Perigee alt
467.5 km
Apogee alt
523.5 km
Semi-major
6,873.7 km
B*
8.1232e-3
RAAN
136.0917°
Arg perigee
357.1685°
Mean anomaly
2.9315°
Rev number
9,850

§ Raw data

HONGHU 21 58555U 23193C   26145.21988488  .00202892  00000+0  81232-2 0  99922 58555  97.2792 136.0917 0040770 357.1685   2.9315 15.23426014 98506

JSON: /api/v1/satellites/58555 · /tle

For live sub-satellite position, see the globe view (requires WebGL).

§ Visibility from observer

Set your observer location to see the next 7 days of passes ≥ 10°. The values pass through the URL so the page stays shareable.

No JS? Fill the form by hand. The geolocation button needs JavaScript.

§ Radio — SatNOGS DB

ModeDescriptionDownlinkUplink
FM Mode U - Transmitter 401.612 MHz

1 transmitter · refreshed weekly from db.satnogs.org